• în România
  • Lista ţărilor
  • Pe 7 zile
  • Temperatura apei
  • Hartă satelitară
  • Meteo pe hartă
  • Widget-uri
  • user-avatar
    Intrare

    Meteo pe oră la Lvovo

    Astăzi, 24 Mai, Joi

    Timp Temperatura Precipitaţii Vânt Presiune Umiditate
    00:00 +16°C° 0 mm 2 m/s 747 mmHg 85%
    01:00 +16°C° 0 mm 2 m/s 747 mmHg 86%
    02:00 +16°C° 0 mm 2 m/s 747 mmHg 86%
    03:00 +14°C° 0 mm 3 m/s 747 mmHg 87%
    04:00 +14°C° 0 mm 3 m/s 747 mmHg 87%
    05:00 +16°C° 0 mm 3 m/s 747 mmHg 86%
    06:00 +16°C° 0 mm 3 m/s 747 mmHg 86%
    07:00 +17°C° 0 mm 3 m/s 747 mmHg 83%
    08:00 +18°C° 0 mm 4 m/s 747 mmHg 80%
    09:00 +20°C° 0 mm 4 m/s 747 mmHg 77%
    10:00 +21°C° 0,1 mm 4 m/s 747 mmHg 72%
    11:00 +22°C° 0,1 mm 5 m/s 746 mmHg 68%
    12:00 +23°C° 0,1 mm 5 m/s 746 mmHg 64%
    13:00 +23°C° 0 mm 5 m/s 746 mmHg 63%
    14:00 +23°C° 0 mm 5 m/s 746 mmHg 62%
    15:00 +24°C° 0 mm 6 m/s 746 mmHg 60%
    16:00 +23°C° 0 mm 5 m/s 746 mmHg 63%
    17:00 +23°C° 0 mm 5 m/s 745 mmHg 66%
    18:00 +22°C° 0 mm 4 m/s 745 mmHg 69%
    19:00 +21°C° 0 mm 4 m/s 745 mmHg 72%
    20:00 +19°C° 0 mm 4 m/s 746 mmHg 75%
    21:00 +18°C° 0 mm 4 m/s 746 mmHg 78%
    22:00 +17°C° 0 mm 4 m/s 746 mmHg 78%
    23:00 +15°C° 0 mm 4 m/s 746 mmHg 78%

    Mâine, 25 Mai, Vineri

    Timp Temperatura Precipitaţii Vânt Presiune Umiditate
    00:00 +15°C° 0 mm 5 m/s 746 mmHg 78%
    01:00 +14°C° 0 mm 5 m/s 746 mmHg 80%
    02:00 +14°C° 0 mm 5 m/s 746 mmHg 82%
    03:00 +13°C° 0 mm 5 m/s 746 mmHg 84%
    04:00 +13°C° 0 mm 6 m/s 747 mmHg 85%
    05:00 +13°C° 0 mm 6 m/s 747 mmHg 85%
    06:00 +12°C° 0 mm 7 m/s 747 mmHg 85%
    07:00 +12°C° 0 mm 7 m/s 748 mmHg 77%
    08:00 +14°C° 0 mm 7 m/s 749 mmHg 69%
    09:00 +13°C° 0 mm 8 m/s 749 mmHg 61%
    10:00 +15°C° 0 mm 8 m/s 749 mmHg 58%
    11:00 +15°C° 0 mm 7 m/s 750 mmHg 54%
    12:00 +16°C° 0 mm 7 m/s 750 mmHg 51%
    13:00 +16°C° 0 mm 7 m/s 750 mmHg 51%
    14:00 +16°C° 0 mm 7 m/s 751 mmHg 50%
    15:00 +17°C° 0 mm 7 m/s 751 mmHg 50%
    16:00 +16°C° 0 mm 6 m/s 751 mmHg 53%
    17:00 +16°C° 0 mm 5 m/s 751 mmHg 56%
    18:00 +16°C° 0 mm 5 m/s 751 mmHg 59%
    19:00 +14°C° 0 mm 5 m/s 752 mmHg 62%
    20:00 +13°C° 0 mm 4 m/s 753 mmHg 64%
    21:00 +11°C° 0 mm 4 m/s 753 mmHg 66%
    22:00 +11°C° 0 mm 4 m/s 754 mmHg 66%
    23:00 +10°C° 0 mm 4 m/s 754 mmHg 65%

    Poimâine, 26 Mai, Sâmbătă

    Timp Temperatura Precipitaţii Vânt Presiune Umiditate
    00:00 +8°C° 0 mm 4 m/s 755 mmHg 64%
    01:00 +8°C° 0 mm 3 m/s 755 mmHg 65%
    02:00 +8°C° 0 mm 3 m/s 755 mmHg 66%
    03:00 +7°C° 0 mm 3 m/s 756 mmHg 67%
    04:00 +7°C° 0 mm 3 m/s 756 mmHg 68%
    05:00 +8°C° 0 mm 3 m/s 757 mmHg 69%
    06:00 +8°C° 0 mm 3 m/s 757 mmHg 70%
    07:00 +10°C° 0 mm 3 m/s 757 mmHg 64%
    08:00 +11°C° 0 mm 4 m/s 758 mmHg 58%
    09:00 +13°C° 0 mm 4 m/s 758 mmHg 52%
    10:00 +14°C° 0 mm 4 m/s 758 mmHg 50%
    11:00 +15°C° 0 mm 4 m/s 758 mmHg 49%
    12:00 +17°C° 0 mm 4 m/s 758 mmHg 48%
    13:00 +17°C° 0 mm 4 m/s 758 mmHg 47%
    14:00 +18°C° 0 mm 4 m/s 758 mmHg 47%
    15:00 +18°C° 0 mm 3 m/s 758 mmHg 47%
    16:00 +18°C° 0 mm 3 m/s 758 mmHg 48%
    17:00 +18°C° 0 mm 2 m/s 757 mmHg 50%
    18:00 +18°C° 0 mm 2 m/s 757 mmHg 52%
    19:00 +16°C° 0 mm 1 m/s 757 mmHg 56%
    20:00 +15°C° 0 mm 1 m/s 757 mmHg 60%
    21:00 +13°C° 0 mm 1 m/s 757 mmHg 65%
    22:00 +12°C° 0 mm 1 m/s 758 mmHg 66%
    23:00 +12°C° 0 mm 2 m/s 758 mmHg 68%

    27 Mai, Duminică

    Timp Temperatura Precipitaţii Vânt Presiune Umiditate
    00:00 +10°C° 0 mm 2 m/s 758 mmHg 69%
    01:00 +10°C° 0 mm 2 m/s 758 mmHg 70%
    02:00 +9°C° 0 mm 2 m/s 758 mmHg 71%
    03:00 +9°C° 0 mm 2 m/s 758 mmHg 73%
    04:00 +9°C° 0 mm 2 m/s 758 mmHg 74%
    05:00 +10°C° 0 mm 2 m/s 758 mmHg 75%
    06:00 +10°C° 0 mm 2 m/s 758 mmHg 77%
    07:00 +13°C° 0 mm 2 m/s 758 mmHg 72%
    08:00 +14°C° 0 mm 3 m/s 758 mmHg 67%
    09:00 +17°C° 0 mm 3 m/s 758 mmHg 62%
    10:00 +18°C° 0 mm 3 m/s 757 mmHg 59%
    11:00 +19°C° 0 mm 3 m/s 757 mmHg 55%
    12:00 +20°C° 0 mm 3 m/s 757 mmHg 52%
    13:00 +20°C° 0 mm 3 m/s 756 mmHg 52%
    14:00 +21°C° 0 mm 3 m/s 756 mmHg 51%
    15:00 +21°C° 0 mm 3 m/s 755 mmHg 51%
    16:00 +21°C° 0 mm 3 m/s 755 mmHg 55%
    17:00 +20°C° 0 mm 3 m/s 754 mmHg 58%
    18:00 +20°C° 0 mm 3 m/s 754 mmHg 62%
    19:00 +18°C° 0 mm 3 m/s 753 mmHg 67%
    20:00 +17°C° 0 mm 3 m/s 753 mmHg 71%
    21:00 +14°C° 0 mm 3 m/s 753 mmHg 76%
    22:00 +13°C° 0 mm 3 m/s 753 mmHg 76%
    23:00 +13°C° 0 mm 3 m/s 753 mmHg 77%

    28 Mai, Luni

    Timp Temperatura Precipitaţii Vânt Presiune Umiditate
    00:00 +12°C° 0 mm 3 m/s 753 mmHg 77%
    01:00 +12°C° 0 mm 3 m/s 752 mmHg 78%
    02:00 +11°C° 0 mm 4 m/s 752 mmHg 79%
    03:00 +11°C° 0 mm 4 m/s 752 mmHg 79%
    04:00 +11°C° 0 mm 4 m/s 752 mmHg 80%
    05:00 +12°C° 0 mm 4 m/s 752 mmHg 80%
    06:00 +12°C° 0 mm 4 m/s 752 mmHg 81%
    07:00 +14°C° 0 mm 4 m/s 752 mmHg 78%
    08:00 +17°C° 0 mm 4 m/s 752 mmHg 76%
    09:00 +18°C° 0 mm 4 m/s 752 mmHg 74%
    10:00 +19°C° 0,1 mm 4 m/s 752 mmHg 69%
    11:00 +20°C° 0,1 mm 5 m/s 752 mmHg 65%
    12:00 +21°C° 0,1 mm 5 m/s 752 mmHg 61%
    13:00 +21°C° 0 mm 6 m/s 752 mmHg 57%
    14:00 +21°C° 0 mm 6 m/s 752 mmHg 53%
    15:00 +21°C° 0 mm 6 m/s 752 mmHg 48%
    16:00 +20°C° 0 mm 6 m/s 752 mmHg 51%
    17:00 +19°C° 0 mm 5 m/s 753 mmHg 54%
    18:00 +18°C° 0 mm 4 m/s 753 mmHg 56%
    19:00 +15°C° 0 mm 4 m/s 753 mmHg 59%
    20:00 +14°C° 0 mm 3 m/s 753 mmHg 62%
    21:00 +12°C° 0 mm 3 m/s 754 mmHg 65%
    22:00 +11°C° 0 mm 3 m/s 754 mmHg 65%
    23:00 +10°C° 0 mm 3 m/s 754 mmHg 65%

    29 Mai, Marţi

    Timp Temperatura Precipitaţii Vânt Presiune Umiditate
    00:00 +9°C° 0 mm 3 m/s 755 mmHg 65%
    01:00 +9°C° 0 mm 2 m/s 755 mmHg 65%
    02:00 +10°C° 0 mm 1 m/s 755 mmHg 65%
    03:00 +9°C° 0 mm 1 m/s 755 mmHg 65%
    04:00 +10°C° 0 mm 1 m/s 755 mmHg 66%
    05:00 +9°C° 0 mm 2 m/s 755 mmHg 67%
    06:00 +10°C° 0 mm 2 m/s 755 mmHg 69%
    07:00 +12°C° 0 mm 3 m/s 755 mmHg 65%
    08:00 +14°C° 0 mm 3 m/s 754 mmHg 60%
    09:00 +17°C° 0 mm 4 m/s 754 mmHg 56%
    10:00 +18°C° 0 mm 4 m/s 754 mmHg 54%
    11:00 +19°C° 0 mm 4 m/s 754 mmHg 51%
    12:00 +20°C° 0 mm 5 m/s 753 mmHg 49%
    13:00 +21°C° 0 mm 5 m/s 753 mmHg 49%
    14:00 +21°C° 0 mm 5 m/s 752 mmHg 49%
    15:00 +22°C° 0 mm 5 m/s 752 mmHg 50%
    16:00 +21°C° 0 mm 4 m/s 751 mmHg 54%
    17:00 +21°C° 0 mm 4 m/s 751 mmHg 58%
    18:00 +21°C° 0 mm 3 m/s 750 mmHg 63%
    19:00 +19°C° 0 mm 3 m/s 750 mmHg 66%
    20:00 +18°C° 0 mm 3 m/s 750 mmHg 70%
    21:00 +16°C° 0 mm 3 m/s 750 mmHg 74%
    22:00 +14°C° 0 mm 4 m/s 749 mmHg 74%
    23:00 +14°C° 0 mm 4 m/s 749 mmHg 74%
    Arată mai mult